,,PA_Meas_PMT16A,,PR_Meas_QMR101_102,,RH_Meas_QMH101,,SR_Meas_QMS101,,TA_Meas_QMH101,,GenWind,,GenWind,
time,status,PA,status,PR,status,RH,status,SR,status,TA,status,DirAvg,status,SpdAvg,
2011-11-23, 00:00:04,VALID,916.268,VALID,0,VALID,97.7932,VALID,0.107441,VALID,20.6553,VALID,189,VALID,0.0527344,
2011-11-23, 00:01:04,VALID,916.252,VALID,0,VALID,97.7856,VALID,0,VALID,20.6553,VALID,189,VALID,0.411328,
2011-11-23, 00:02:04,VALID,916.236,VALID,0,VALID,97.7779,VALID,0,VALID,20.6764,VALID,189,VALID,0.496875,
2011-11-23, 00:03:04,VALID,916.179,VALID,0,VALID,97.7856,VALID,0,VALID,20.6569,VALID,189,VALID,0.567969,
2011-11-23, 00:04:04,VALID,916.184,VALID,0,VALID,97.7703,VALID,0,VALID,20.6569,VALID,189,VALID,0.675781,
2011-11-23, 00:05:04,VALID,916.151,VALID,0,VALID,97.7779,VALID,0,VALID,20.6764,VALID,189,VALID,0.480859,
2011-11-23, 00:06:04,VALID,916.152,VALID,0,VALID,97.7856,VALID,0,VALID,20.6163,VALID,189,VALID,0.491406,
2011-11-23, 00:07:04,VALID,916.097,VALID,0,VALID,97.7856,VALID,0,VALID,20.6374,VALID,189,VALID,0.692578,
2011-11-23, 00:08:04,VALID,916.099,VALID,0,VALID,97.7932,VALID,0,VALID,20.6569,VALID,189,VALID,0.4875,
2011-11-23, 00:09:04,VALID,916.051,VALID,0,VALID,97.7932,VALID,0.107441,VALID,20.6358,VALID,189,VALID,0.378125,
2011-11-23, 00:10:04,VALID,916.031,VALID,0,VALID,97.8008,VALID,0,VALID,20.6569,VALID,189,VALID,0.169922,
2011-11-23, 00:11:04,VALID,916.03,VALID,0,VALID,97.8008,VALID,0,VALID,20.6358,VALID,189,VALID,0.357031,
2011-11-23, 00:12:04,VALID,915.991,VALID,0,VALID,97.8008,VALID,0,VALID,20.6569,VALID,189,VALID,0.486719,
2011-11-23, 00:13:04,VALID,915.961,VALID,0,VALID,97.7932,VALID,0,VALID,20.6569,VALID,189,VALID,0.308594,
2011-11-23, 00:14:04,VALID,915.941,VALID,0,VALID,97.7856,VALID,0,VALID,20.6569,VALID,189,VALID,0.435156,
2011-11-23, 00:15:04,VALID,915.915,VALID,0,VALID,97.8008,VALID,0.107441,VALID,20.6585,VALID,189,VALID,0.698438,
2011-11-23, 00:16:04,VALID,915.905,VALID,0,VALID,97.8008,VALID,0,VALID,20.6179,VALID,189,VALID,0.457812,
2011-11-23, 00:17:04,VALID,915.881,VALID,0,VALID,97.8084,VALID,0,VALID,20.6179,VALID,189,VALID,0.296875,
2011-11-23, 00:18:04,VALID,915.876,VALID,0,VALID,97.7932,VALID,0,VALID,20.6585,VALID,189,VALID,0.0785156,
2011-11-23, 00:19:04,VALID,915.876,VALID,0,VALID,97.8084,VALID,0,VALID,20.6374,VALID,189,VALID,0.0015625,
2011-11-23, 00:20:04,VALID,915.901,VALID,0,VALID,97.8008,VALID,0,VALID,20.6569,VALID,189,VALID,0.332812,
2011-11-23, 00:21:04,VALID,915.865,VALID,0,VALID,97.7932,VALID,0.107441,VALID,20.6764,VALID,189,VALID,0.272266,
2011-11-23, 00:22:04,VALID,915.873,VALID,0,VALID,97.8008,VALID,0.107441,VALID,20.6374,VALID,189,VALID,0.329688,
2011-11-23, 00:23:04,VALID,915.833,VALID,0,VALID,97.7932,VALID,0,VALID,20.6569,VALID,189,VALID,0.312891,
2011-11-23, 00:24:04,VALID,915.846,VALID,0,VALID,97.8084,VALID,0,VALID,20.6553,VALID,189,VALID,0.157031,
2011-11-23, 00:25:04,VALID,915.856,VALID,0,VALID,97.8008,VALID,0,VALID,20.6764,VALID,189,VALID,0.28125,
2011-11-23, 00:26:04,VALID,915.878,VALID,0,VALID,97.7932,VALID,0,VALID,20.6569,VALID,189,VALID,0.310937,
2011-11-23, 00:27:04,VALID,915.863,VALID,0,VALID,97.7779,VALID,0,VALID,20.5984,VALID,189,VALID,0.373437,
2011-11-23, 00:28:04,VALID,915.853,VALID,0,VALID,97.7932,VALID,0,VALID,20.5789,VALID,189,VALID,0.294922,
2011-11-23, 00:29:04,VALID,915.864,VALID,0,VALID,97.7779,VALID,0,VALID,20.5594,VALID,189,VALID,0.453125,
2011-11-23, 00:30:04,VALID,915.829,VALID,0,VALID,97.8008,VALID,0.107441,VALID,20.5804,VALID,189,VALID,0.466406,
2011-11-23, 00:31:04,VALID,915.835,VALID,0,VALID,97.8008,VALID,0,VALID,20.5789,VALID,189,VALID,0.389844,
2011-11-23, 00:32:04,VALID,915.835,VALID,0,VALID,97.7932,VALID,0.107441,VALID,20.5594,VALID,189,VALID,0.414063,
2011-11-23, 00:33:04,VALID,915.79,VALID,0,VALID,97.8237,VALID,0,VALID,20.5399,VALID,189,VALID,0.334375,
2011-11-23, 00:34:04,VALID,915.821,VALID,0,VALID,97.7932,VALID,0,VALID,20.5789,VALID,189,VALID,0.112891,
2011-11-23, 00:35:04,VALID,915.785,VALID,0,VALID,97.8084,VALID,0,VALID,20.5789,VALID,189,VALID,0,
2011-11-23, 00:36:04,VALID,915.819,VALID,0,VALID,97.8008,VALID,0,VALID,20.5594,VALID,189,VALID,0.113281,
2011-11-23, 00:37:04,VALID,915.809,VALID,0,VALID,97.8084,VALID,0,VALID,20.5984,VALID,189,VALID,0.180859,
2011-11-23, 00:38:04,VALID,915.798,VALID,0,VALID,97.8313,VALID,0,VALID,20.6179,VALID,189,VALID,0,
2011-11-23, 00:39:04,VALID,915.796,VALID,0,VALID,97.816,VALID,0,VALID,20.6163,VALID,189,VALID,0,
2011-11-23, 00:40:04,VALID,915.809,VALID,0,VALID,97.8389,VALID,0.107441,VALID,20.6374,VALID,189,VALID,0,
2011-11-23, 00:41:04,VALID,915.831,VALID,0,VALID,97.8313,VALID,0,VALID,20.6569,VALID,189,VALID,0.00703125,
2011-11-23, 00:42:04,VALID,915.815,VALID,0,VALID,97.8008,VALID,0,VALID,20.6569,VALID,189,VALID,0.507813,
2011-11-23, 00:43:04,VALID,915.833,VALID,0,VALID,97.8084,VALID,0,VALID,20.6585,VALID,189,VALID,0.548047,
2011-11-23, 00:44:04,VALID,915.817,VALID,0,VALID,97.8237,VALID,0,VALID,20.6179,VALID,189,VALID,0.295703,
2011-11-23, 00:45:04,VALID,915.808,VALID,0,VALID,97.7932,VALID,0,VALID,20.639,VALID,189,VALID,0,
2011-11-23, 00:46:04,VALID,915.856,VALID,0,VALID,97.8084,VALID,0,VALID,20.639,VALID,189,VALID,0.00078125,
2011-11-23, 00:47:04,VALID,915.854,VALID,0,VALID,97.8084,VALID,0,VALID,20.6179,VALID,189,VALID,0.232422,
2011-11-23, 00:48:04,VALID,915.883,VALID,0,VALID,97.816,VALID,0,VALID,20.5968,VALID,189,VALID,0.257422,
2011-11-23, 00:49:04,VALID,915.855,VALID,0,VALID,97.8237,VALID,0.107441,VALID,20.5968,VALID,189,VALID,0.156641,
2011-11-23, 00:50:04,VALID,915.879,VALID,0,VALID,97.8237,VALID,0,VALID,20.5968,VALID,189,VALID,0.26875,
2011-11-23, 00:51:04,VALID,915.884,VALID,0,VALID,97.8313,VALID,0,VALID,20.6374,VALID,189,VALID,0,
2011-11-23, 00:52:04,VALID,915.889,VALID,0,VALID,97.8313,VALID,0,VALID,20.6374,VALID,189,VALID,0,
2011-11-23, 00:53:04,VALID,915.92,VALID,0,VALID,97.816,VALID,0,VALID,20.6358,VALID,189,VALID,0.130469,
2011-11-23, 00:54:04,VALID,915.877,VALID,0,VALID,97.7932,VALID,0,VALID,20.6374,VALID,189,VALID,0.15,
2011-11-23, 00:55:04,VALID,915.896,VALID,0,VALID,97.8084,VALID,0,VALID,20.6374,VALID,189,VALID,0,
2011-11-23, 00:56:04,VALID,915.863,VALID,0,VALID,97.8313,VALID,0,VALID,20.6585,VALID,189,VALID,0,
2011-11-23, 00:57:04,VALID,915.834,VALID,0,VALID,97.816,VALID,0.107441,VALID,20.6569,VALID,189,VALID,0,
2011-11-23, 00:58:04,VALID,915.827,VALID,0,VALID,97.8313,VALID,0,VALID,20.6553,VALID,189,VALID,0,
2011-11-23, 00:59:04,VALID,915.81,VALID,0,VALID,97.8313,VALID,0,VALID,20.6358,VALID,189,VALID,0,
2011-11-23, 01:00:04,VALID,915.776,VALID,0,VALID,97.8237,VALID,0,VALID,20.6553,VALID,189,VALID,0,
2011-11-23, 01:01:04,VALID,915.764,VALID,0,VALID,97.816,VALID,0.107441,VALID,20.6553,VALID,189,VALID,0,
2011-11-23, 01:02:04,VALID,915.804,VALID,0,VALID,97.8084,VALID,0,VALID,20.6764,VALID,189,VALID,0,
2011-11-23, 01:03:04,VALID,915.8,VALID,0,VALID,97.7932,VALID,0,VALID,20.6764,VALID,189,VALID,0,
2011-11-23, 01:04:04,VALID,915.788,VALID,0,VALID,97.8313,VALID,0,VALID,20.6764,VALID,189,VALID,0.0234375,
2011-11-23, 01:05:04,VALID,915.819,VALID,0,VALID,97.816,VALID,0,VALID,20.678,VALID,189,VALID,0.656641,
2011-11-23, 01:06:04,VALID,915.814,VALID,0,VALID,97.8313,VALID,0,VALID,20.6975,VALID,189,VALID,0.493359,
2011-11-23, 01:07:04,VALID,915.781,VALID,0,VALID,97.7932,VALID,0,VALID,20.6163,VALID,189,VALID,0.568359,
2011-11-23, 01:08:04,VALID,915.778,VALID,0,VALID,97.8008,VALID,0,VALID,20.6194,VALID,189,VALID,0.732422,
2011-11-23, 01:09:04,VALID,915.792,VALID,0,VALID,97.8008,VALID,0,VALID,20.5789,VALID,189,VALID,0.580469,
2011-11-23, 01:10:04,VALID,915.751,VALID,0,VALID,97.8008,VALID,0,VALID,20.5999,VALID,189,VALID,0.594141,
2011-11-23, 01:11:04,VALID,915.761,VALID,0,VALID,97.8084,VALID,0,VALID,20.5789,VALID,189,VALID,0.371094,
2011-11-23, 01:12:04,VALID,915.729,VALID,0,VALID,97.8084,VALID,0,VALID,20.5594,VALID,189,VALID,0.678906,
2011-11-23, 01:13:04,VALID,915.716,VALID,0,VALID,97.8084,VALID,0,VALID,20.5399,VALID,189,VALID,0.326172,
2011-11-23, 01:14:04,VALID,915.688,VALID,0,VALID,97.816,VALID,0,VALID,20.5399,VALID,189,VALID,0.458594,
2011-11-23, 01:15:04,VALID,915.702,VALID,0,VALID,97.8084,VALID,0,VALID,20.5399,VALID,189,VALID,0.417188,
2011-11-23, 01:16:04,VALID,915.667,VALID,0,VALID,97.8313,VALID,0,VALID,20.5399,VALID,189,VALID,0.454688,
2011-11-23, 01:17:04,VALID,915.636,VALID,0,VALID,97.816,VALID,0,VALID,20.5204,VALID,189,VALID,0.506641,
2011-11-23, 01:18:04,VALID,915.634,VALID,0,VALID,97.8237,VALID,0,VALID,20.5399,VALID,189,VALID,0.557031,
2011-11-23, 01:19:04,VALID,915.596,VALID,0,VALID,97.816,VALID,0,VALID,20.5399,VALID,189,VALID,0.592578,
2011-11-23, 01:20:04,VALID,915.588,VALID,0,VALID,97.8465,VALID,0,VALID,20.4993,VALID,189,VALID,0.575781,
2011-11-23, 01:21:04,VALID,915.56,VALID,0,VALID,97.8313,VALID,0,VALID,20.5009,VALID,189,VALID,0.435547,
2011-11-23, 01:22:04,VALID,915.556,VALID,0,VALID,97.8084,VALID,0,VALID,20.5009,VALID,189,VALID,0.614453,
2011-11-23, 01:23:04,VALID,915.515,VALID,0,VALID,97.816,VALID,0,VALID,20.5009,VALID,189,VALID,0.503125,
2011-11-23, 01:24:04,VALID,915.5,VALID,0,VALID,97.8465,VALID,0,VALID,20.5219,VALID,189,VALID,0.326953,
2011-11-23, 01:25:04,VALID,915.49,VALID,0,VALID,97.8313,VALID,0,VALID,20.5204,VALID,189,VALID,0.439844,
2011-11-23, 01:26:04,VALID,915.471,VALID,0,VALID,97.8542,VALID,0,VALID,20.4993,VALID,189,VALID,0.560156,
2011-11-23, 01:27:04,VALID,915.458,VALID,0,VALID,97.8542,VALID,0,VALID,20.5204,VALID,189,VALID,0.194141,
2011-11-23, 01:28:04,VALID,915.437,VALID,0,VALID,97.8542,VALID,0,VALID,20.5204,VALID,189,VALID,0.236328,
2011-11-23, 01:29:04,VALID,915.427,VALID,0,VALID,97.8542,VALID,0,VALID,20.5399,VALID,189,VALID,0,
2011-11-23, 01:30:04,VALID,915.383,VALID,0,VALID,97.8465,VALID,0,VALID,20.5594,VALID,189,VALID,0.175781,
2011-11-23, 01:31:04,VALID,915.379,VALID,0,VALID,97.8465,VALID,0,VALID,20.5789,VALID,189,VALID,0.00703125,
2011-11-23, 01:32:04,VALID,915.342,VALID,0,VALID,97.8542,VALID,0,VALID,20.5789,VALID,189,VALID,0.439063,
2011-11-23, 01:33:04,VALID,915.354,VALID,0,VALID,97.8618,VALID,0,VALID,20.5999,VALID,189,VALID,0.360938,
2011-11-23, 01:34:04,VALID,915.316,VALID,0,VALID,97.8465,VALID,0,VALID,20.5789,VALID,189,VALID,0.489453,
2011-11-23, 01:35:04,VALID,915.288,VALID,0,VALID,97.8542,VALID,0.107441,VALID,20.5399,VALID,189,VALID,0.58125,
2011-11-23, 01:36:04,VALID,915.282,VALID,0,VALID,97.8542,VALID,0,VALID,20.5594,VALID,189,VALID,0.535937,
2011-11-23, 01:37:04,VALID,915.275,VALID,0,VALID,97.8618,VALID,0.107441,VALID,20.5789,VALID,189,VALID,0.466797,
2011-11-23, 01:38:04,VALID,915.267,VALID,0,VALID,97.8694,VALID,0,VALID,20.5984,VALID,189,VALID,0.34375,
2011-11-23, 01:39:04,VALID,915.258,VALID,0,VALID,97.8465,VALID,0,VALID,20.5984,VALID,189,VALID,0.336719,
2011-11-23, 01:40:04,VALID,915.263,VALID,0,VALID,97.8542,VALID,0,VALID,20.6374,VALID,189,VALID,0.335156,
2011-11-23, 01:41:04,VALID,915.263,VALID,0,VALID,97.8694,VALID,0,VALID,20.6374,VALID,189,VALID,0.23125,
2011-11-23, 01:42:04,VALID,915.231,VALID,0,VALID,97.877,VALID,0,VALID,20.6179,VALID,189,VALID,0.294922,
2011-11-23, 01:43:04,VALID,915.235,VALID,0,VALID,97.877,VALID,0,VALID,20.6179,VALID,189,VALID,0.0640625,
2011-11-23, 01:44:04,VALID,915.192,VALID,0,VALID,97.8465,VALID,0,VALID,20.6179,VALID,189,VALID,0.635547,
2011-11-23, 01:45:04,VALID,915.197,VALID,0,VALID,97.8618,VALID,0,VALID,20.5984,VALID,34,VALID,0.889453,
2011-11-23, 01:46:04,VALID,915.165,VALID,0,VALID,97.8465,VALID,0,VALID,20.5984,VALID,34,VALID,0.514453,
2011-11-23, 01:47:04,VALID,915.143,VALID,0,VALID,97.8618,VALID,0,VALID,20.6194,VALID,34,VALID,0.405078,
2011-11-23, 01:48:04,VALID,915.122,VALID,0,VALID,97.8694,VALID,0,VALID,20.6194,VALID,34,VALID,0.00742187,
2011-11-23, 01:49:04,VALID,915.107,VALID,0,VALID,97.8618,VALID,0,VALID,20.5984,VALID,34,VALID,0.436328,
2011-11-23, 01:50:04,VALID,915.073,VALID,0,VALID,97.877,VALID,0,VALID,20.5789,VALID,34,VALID,0.0496094,
2011-11-23, 01:51:04,VALID,915.086,VALID,0,VALID,97.8694,VALID,0,VALID,20.5789,VALID,34,VALID,0,
2011-11-23, 01:52:04,VALID,915.058,VALID,0,VALID,97.8542,VALID,0,VALID,20.5594,VALID,34,VALID,0.460938,
2011-11-23, 01:53:04,VALID,915.025,VALID,0,VALID,97.8542,VALID,0,VALID,20.5399,VALID,34,VALID,0.111719,
2011-11-23, 01:54:04,VALID,915.03,VALID,0,VALID,97.8618,VALID,0.107441,VALID,20.5399,VALID,34,VALID,0.000390625,
2011-11-23, 01:55:04,VALID,914.988,VALID,0,VALID,97.8618,VALID,0,VALID,20.5399,VALID,34,VALID,0,
2011-11-23, 01:56:04,VALID,914.984,VALID,0,VALID,97.877,VALID,0,VALID,20.5399,VALID,34,VALID,0.685547,
2011-11-23, 01:57:04,VALID,914.961,VALID,0,VALID,97.8465,VALID,0,VALID,20.5789,VALID,34,VALID,0.103516,
2011-11-23, 01:58:04,VALID,914.972,VALID,0,VALID,97.8542,VALID,0,VALID,20.5999,VALID,34,VALID,0.579687,
2011-11-23, 01:59:04,VALID,914.946,VALID,0,VALID,97.877,VALID,0,VALID,20.5789,VALID,34,VALID,0.514063,
2011-11-23, 02:00:04,VALID,914.969,VALID,0,VALID,97.8694,VALID,0,VALID,20.5968,VALID,34,VALID,0.736328,
2011-11-23, 02:01:04,VALID,914.928,VALID,0,VALID,97.8694,VALID,0,VALID,20.5984,VALID,34,VALID,0.613281,
2011-11-23, 02:02:04,VALID,914.928,VALID,0,VALID,97.8618,VALID,0,VALID,20.6179,VALID,33,VALID,0.6875,
2011-11-23, 02:03:04,VALID,914.938,VALID,0,VALID,97.877,VALID,0,VALID,20.6585,VALID,34,VALID,0.688672,
2011-11-23, 02:04:04,VALID,914.927,VALID,0,VALID,97.8542,VALID,0.107441,VALID,20.6179,VALID,34,VALID,0.852344,
2011-11-23, 02:05:04,VALID,914.933,VALID,0,VALID,97.8694,VALID,0,VALID,20.6179,VALID,33,VALID,0.942187,
2011-11-23, 02:06:04,VALID,914.881,VALID,0,VALID,97.8542,VALID,0.107441,VALID,20.6374,VALID,34,VALID,0.783203,
2011-11-23, 02:07:04,VALID,914.89,VALID,0,VALID,97.8542,VALID,0,VALID,20.6179,VALID,34,VALID,0.718359,
2011-11-23, 02:08:04,VALID,914.86,VALID,0,VALID,97.8694,VALID,0,VALID,20.6194,VALID,33,VALID,0.711328,
2011-11-23, 02:09:04,VALID,914.846,VALID,0,VALID,97.8847,VALID,0,VALID,20.6179,VALID,34,VALID,0.359766,
2011-11-23, 02:10:04,VALID,914.842,VALID,0,VALID,97.877,VALID,0,VALID,20.6179,VALID,34,VALID,0.542188,
2011-11-23, 02:11:04,VALID,914.845,VALID,0,VALID,97.877,VALID,0,VALID,20.6179,VALID,33,VALID,0.461328,
2011-11-23, 02:12:04,VALID,914.838,VALID,0,VALID,97.877,VALID,0,VALID,20.6374,VALID,34,VALID,0.422656,
2011-11-23, 02:13:04,VALID,914.811,VALID,0,VALID,97.8618,VALID,0,VALID,20.6569,VALID,33,VALID,0,
2011-11-23, 02:14:04,VALID,914.808,VALID,0,VALID,97.8694,VALID,0,VALID,20.6374,VALID,34,VALID,0.361328,
2011-11-23, 02:15:04,VALID,914.79,VALID,0,VALID,97.8618,VALID,0,VALID,20.6194,VALID,34,VALID,0.0398437,
2011-11-23, 02:16:04,VALID,914.768,VALID,0,VALID,97.8694,VALID,0,VALID,20.639,VALID,34,VALID,0.307422,
2011-11-23, 02:17:04,VALID,914.773,VALID,0,VALID,97.8618,VALID,0,VALID,20.5984,VALID,34,VALID,0.0667969,
2011-11-23, 02:18:04,VALID,914.785,VALID,0,VALID,97.8694,VALID,0.107441,VALID,20.5984,VALID,34,VALID,0.109375,
2011-11-23, 02:19:04,VALID,914.772,VALID,0,VALID,97.9075,VALID,0,VALID,20.5773,VALID,34,VALID,0.292188,
2011-11-23, 02:20:04,VALID,914.772,VALID,0,VALID,97.8694,VALID,0,VALID,20.6179,VALID,34,VALID,0.190234,
2011-11-23, 02:21:04,VALID,914.761,VALID,0,VALID,97.877,VALID,0,VALID,20.6374,VALID,34,VALID,0.154687,
2011-11-23, 02:22:04,VALID,914.753,VALID,0,VALID,97.8618,VALID,0,VALID,20.5984,VALID,34,VALID,0,
2011-11-23, 02:23:04,VALID,914.746,VALID,0,VALID,97.8923,VALID,0,VALID,20.6179,VALID,34,VALID,0,
2011-11-23, 02:24:04,VALID,914.718,VALID,0,VALID,97.8923,VALID,0.107441,VALID,20.6585,VALID,34,VALID,0,
2011-11-23, 02:25:04,VALID,914.713,VALID,0,VALID,97.8923,VALID,0,VALID,20.6179,VALID,34,VALID,0.04375,
2011-11-23, 02:26:04,VALID,914.699,VALID,0,VALID,97.877,VALID,0,VALID,20.6179,VALID,34,VALID,0.226563,
2011-11-23, 02:27:04,VALID,914.69,VALID,0,VALID,97.8999,VALID,0,VALID,20.639,VALID,34,VALID,0.419141,
2011-11-23, 02:28:04,VALID,914.679,VALID,0,VALID,97.8923,VALID,0.107441,VALID,20.6179,VALID,34,VALID,0.182812,
2011-11-23, 02:29:04,VALID,914.651,VALID,0,VALID,97.8847,VALID,0,VALID,20.5968,VALID,34,VALID,0.305078,
2011-11-23, 02:30:04,VALID,914.684,VALID,0,VALID,97.8999,VALID,0.107441,VALID,20.6179,VALID,34,VALID,0.389844,
2011-11-23, 02:31:04,VALID,914.643,VALID,0,VALID,97.8923,VALID,0.107441,VALID,20.5984,VALID,34,VALID,0.684375,
2011-11-23, 02:32:04,VALID,914.643,VALID,0,VALID,97.877,VALID,0.107441,VALID,20.5984,VALID,34,VALID,0.693359,
2011-11-23, 02:33:04,VALID,914.618,VALID,0,VALID,97.8923,VALID,0,VALID,20.5984,VALID,34,VALID,0.358594,
2011-11-23, 02:34:04,VALID,914.587,VALID,0,VALID,97.8923,VALID,0,VALID,20.5984,VALID,236,VALID,0.891797,
2011-11-23, 02:35:04,VALID,914.588,VALID,0,VALID,97.877,VALID,0.107441,VALID,20.5773,VALID,253,VALID,1.27461,
2011-11-23, 02:36:04,VALID,914.589,VALID,0,VALID,97.8923,VALID,0.107441,VALID,20.5789,VALID,253,VALID,0.867969,
2011-11-23, 02:37:04,VALID,914.562,VALID,0,VALID,97.8847,VALID,0.107441,VALID,20.5789,VALID,253,VALID,0.332031,
2011-11-23, 02:38:04,VALID,914.578,VALID,0,VALID,97.8999,VALID,0,VALID,20.5789,VALID,253,VALID,0.604297,
2011-11-23, 02:39:04,VALID,914.537,VALID,0,VALID,97.8923,VALID,0,VALID,20.5804,VALID,253,VALID,0.539453,
2011-11-23, 02:40:04,VALID,914.496,VALID,0,VALID,97.8847,VALID,0,VALID,20.5999,VALID,253,VALID,0.505469,
2011-11-23, 02:41:04,VALID,914.528,VALID,0,VALID,97.8847,VALID,0,VALID,20.5984,VALID,253,VALID,0.470703,
2011-11-23, 02:42:04,VALID,914.539,VALID,0,VALID,97.8923,VALID,0.107441,VALID,20.5984,VALID,265,VALID,0.501953,
2011-11-23, 02:43:04,VALID,914.49,VALID,0,VALID,97.8999,VALID,0,VALID,20.6194,VALID,241,VALID,0.494922,
2011-11-23, 02:44:04,VALID,914.505,VALID,0,VALID,97.877,VALID,0,VALID,20.5789,VALID,292,VALID,0.659766,
2011-11-23, 02:45:04,VALID,914.5,VALID,0,VALID,97.8999,VALID,0,VALID,20.5789,VALID,243,VALID,0.999609,
2011-11-23, 02:46:04,VALID,914.482,VALID,0,VALID,97.8999,VALID,0,VALID,20.5594,VALID,243,VALID,0.435937,
2011-11-23, 02:47:04,VALID,914.454,VALID,0,VALID,97.8923,VALID,0,VALID,20.5789,VALID,270,VALID,0.8375,
2011-11-23, 02:48:04,VALID,914.452,VALID,0,VALID,97.9075,VALID,0,VALID,20.5594,VALID,271,VALID,0.762109,
2011-11-23, 02:49:04,VALID,914.447,VALID,0,VALID,97.9152,VALID,0,VALID,20.5594,VALID,271,VALID,0.344531,
2011-11-23, 02:50:04,VALID,914.435,VALID,0,VALID,97.8999,VALID,0,VALID,20.5399,VALID,292,VALID,0.610547,
2011-11-23, 02:51:04,VALID,914.397,VALID,0,VALID,97.9075,VALID,0,VALID,20.5204,VALID,291,VALID,0.755469,
2011-11-23, 02:52:04,VALID,914.416,VALID,0,VALID,97.8923,VALID,0,VALID,20.5219,VALID,291,VALID,0.576172,
2011-11-23, 02:53:04,VALID,914.38,VALID,0,VALID,97.9075,VALID,0.107441,VALID,20.5219,VALID,291,VALID,0,
2011-11-23, 02:54:04,VALID,914.341,VALID,0,VALID,97.9304,VALID,0,VALID,20.5399,VALID,292,VALID,0.13125,
2011-11-23, 02:55:04,VALID,914.344,VALID,0,VALID,97.9228,VALID,0,VALID,20.5399,VALID,291,VALID,0.496094,
2011-11-23, 02:56:04,VALID,914.321,VALID,0,VALID,97.8999,VALID,0,VALID,20.5399,VALID,292,VALID,0.260938,
2011-11-23, 02:57:04,VALID,914.321,VALID,0,VALID,97.8999,VALID,0,VALID,20.5009,VALID,291,VALID,0.474609,
2011-11-23, 02:58:04,VALID,914.308,VALID,0,VALID,97.9228,VALID,0,VALID,20.5009,VALID,291,VALID,0.166016,
2011-11-23, 02:59:04,VALID,914.284,VALID,0,VALID,97.9228,VALID,0,VALID,20.4813,VALID,291,VALID,0.496094,
2011-11-23, 03:00:04,VALID,914.269,VALID,0,VALID,97.9075,VALID,0.107441,VALID,20.4618,VALID,291,VALID,0.239063,
2011-11-23, 03:01:04,VALID,914.244,VALID,0,VALID,97.9152,VALID,0.107441,VALID,20.4618,VALID,291,VALID,0,
2011-11-23, 03:02:04,VALID,914.256,VALID,0,VALID,97.9075,VALID,0,VALID,20.4829,VALID,291,VALID,0,
2011-11-23, 03:03:04,VALID,914.248,VALID,0,VALID,97.9152,VALID,0,VALID,20.5024,VALID,291,VALID,0,
2011-11-23, 03:04:04,VALID,914.228,VALID,0,VALID,97.9228,VALID,0,VALID,20.4829,VALID,292,VALID,0.0515625,
2011-11-23, 03:05:04,VALID,914.253,VALID,0,VALID,97.8999,VALID,0,VALID,20.5024,VALID,291,VALID,0,
2011-11-23, 03:06:04,VALID,914.208,VALID,0,VALID,97.9152,VALID,0,VALID,20.543,VALID,291,VALID,0.406641,
2011-11-23, 03:07:04,VALID,914.241,VALID,0,VALID,97.9228,VALID,0,VALID,20.5219,VALID,291,VALID,0.257031,
2011-11-23, 03:08:04,VALID,914.228,VALID,0,VALID,97.9152,VALID,0,VALID,20.4829,VALID,291,VALID,0.38125,
2011-11-23, 03:09:04,VALID,914.207,VALID,0,VALID,97.8999,VALID,0,VALID,20.504,VALID,291,VALID,0.00195313,
2011-11-23, 03:10:04,VALID,914.214,VALID,0,VALID,97.9075,VALID,0,VALID,20.4423,VALID,291,VALID,0,
2011-11-23, 03:11:04,VALID,914.235,VALID,0,VALID,97.9152,VALID,0,VALID,20.4244,VALID,291,VALID,0.116406,
2011-11-23, 03:12:04,VALID,914.232,VALID,0,VALID,97.9075,VALID,0,VALID,20.4454,VALID,291,VALID,0.447656,
2011-11-23, 03:13:04,VALID,914.227,VALID,0,VALID,97.9228,VALID,0,VALID,20.4665,VALID,291,VALID,0.45,
2011-11-23, 03:14:04,VALID,914.25,VALID,0,VALID,97.938,VALID,0,VALID,20.4033,VALID,291,VALID,0.239844,
2011-11-23, 03:15:04,VALID,914.223,VALID,0,VALID,97.9456,VALID,0,VALID,20.4244,VALID,291,VALID,0.262109,
2011-11-23, 03:16:04,VALID,914.221,VALID,0,VALID,97.9152,VALID,0,VALID,20.4033,VALID,292,VALID,0.232422,
2011-11-23, 03:17:04,VALID,914.201,VALID,0,VALID,97.9228,VALID,0,VALID,20.4439,VALID,291,VALID,0.0140625,
2011-11-23, 03:18:04,VALID,914.202,VALID,0,VALID,97.9228,VALID,0,VALID,20.4634,VALID,291,VALID,0,
2011-11-23, 03:19:04,VALID,914.164,VALID,0,VALID,97.9304,VALID,0,VALID,20.4228,VALID,291,VALID,0.00234375,
2011-11-23, 03:20:04,VALID,914.185,VALID,0,VALID,97.9228,VALID,0,VALID,20.4197,VALID,292,VALID,0,
2011-11-23, 03:21:04,VALID,914.175,VALID,0,VALID,97.9152,VALID,0,VALID,20.5235,VALID,291,VALID,0,
2011-11-23, 03:22:04,VALID,914.156,VALID,0,VALID,97.9304,VALID,0,VALID,20.4829,VALID,291,VALID,0,
2011-11-23, 03:23:04,VALID,914.156,VALID,0,VALID,97.9152,VALID,0,VALID,20.4408,VALID,291,VALID,0.0109375,
2011-11-23, 03:24:04,VALID,914.159,VALID,0,VALID,97.9152,VALID,0,VALID,20.4197,VALID,291,VALID,0.214062,
2011-11-23, 03:25:04,VALID,914.142,VALID,0,VALID,97.938,VALID,0,VALID,20.5024,VALID,291,VALID,0.494922,
2011-11-23, 03:26:04,VALID,914.12,VALID,0,VALID,97.9228,VALID,0,VALID,20.4618,VALID,291,VALID,0.0140625,
2011-11-23, 03:27:04,VALID,914.14,VALID,0,VALID,97.8999,VALID,0,VALID,20.4829,VALID,291,VALID,0.284375,
2011-11-23, 03:28:04,VALID,914.12,VALID,0,VALID,97.9152,VALID,0,VALID,20.4618,VALID,291,VALID,0,
2011-11-23, 03:29:04,VALID,914.106,VALID,0,VALID,97.9304,VALID,0,VALID,20.5024,VALID,291,VALID,0.532422,
2011-11-23, 03:30:04,VALID,914.118,VALID,0,VALID,97.9228,VALID,0,VALID,20.4829,VALID,290,VALID,0.310156,
2011-11-23, 03:31:04,VALID,914.13,VALID,0,VALID,97.938,VALID,0,VALID,20.4618,VALID,290,VALID,0.328125,
2011-11-23, 03:32:04,VALID,914.137,VALID,0,VALID,97.9228,VALID,0,VALID,20.4423,VALID,291,VALID,0.182031,
2011-11-23, 03:33:04,VALID,914.143,VALID,0,VALID,97.9228,VALID,0,VALID,20.4813,VALID,290,VALID,0,
2011-11-23, 03:34:04,VALID,914.132,VALID,0,VALID,97.9228,VALID,0,VALID,20.4813,VALID,290,VALID,0.496094,
2011-11-23, 03:35:04,VALID,914.14,VALID,0,VALID,97.9075,VALID,0,VALID,20.4829,VALID,290,VALID,0.401953,
2011-11-23, 03:36:04,VALID,914.146,VALID,0,VALID,97.9075,VALID,0,VALID,20.4634,VALID,290,VALID,0.339453,
2011-11-23, 03:37:04,VALID,914.119,VALID,0,VALID,97.9075,VALID,0,VALID,20.4018,VALID,290,VALID,0.00078125,
2011-11-23, 03:38:04,VALID,914.099,VALID,0,VALID,97.9228,VALID,0,VALID,20.4423,VALID,290,VALID,0.0203125,
2011-11-23, 03:39:04,VALID,914.094,VALID,0,VALID,97.8999,VALID,0,VALID,20.4618,VALID,290,VALID,0.0046875,
2011-11-23, 03:40:04,VALID,914.078,VALID,0,VALID,97.9304,VALID,0,VALID,20.4618,VALID,290,VALID,0,
2011-11-23, 03:41:04,VALID,914.039,VALID,0,VALID,97.9152,VALID,0.107441,VALID,20.4634,VALID,290,VALID,0.280859,
2011-11-23, 03:42:04,VALID,914,VALID,0,VALID,97.938,VALID,0,VALID,20.4228,VALID,290,VALID,0.139453,
2011-11-23, 03:43:04,VALID,914.004,VALID,0,VALID,97.9228,VALID,0,VALID,20.4018,VALID,290,VALID,0.310156,
2011-11-23, 03:44:04,VALID,913.972,VALID,0,VALID,97.938,VALID,0,VALID,20.4423,VALID,290,VALID,0.125391,
2011-11-23, 03:45:04,VALID,913.946,VALID,0,VALID,97.938,VALID,0,VALID,20.4634,VALID,290,VALID,0,